Index of /20260427/WXO-DD/model_rdps/10km/18/081
Name Last modified Size Description
Parent Directory -
20260427T18Z_MSC_RDPS_AbsoluteVorticity_IsbL-0250_RLatLon0.09_PT081H.grib2 2026-04-27 21:04 612K
20260427T18Z_MSC_RDPS_AbsoluteVorticity_IsbL-0500_RLatLon0.09_PT081H.grib2 2026-04-27 21:04 561K
20260427T18Z_MSC_RDPS_AbsoluteVorticity_IsbL-0700_RLatLon0.09_PT081H.grib2 2026-04-27 21:04 618K
20260427T18Z_MSC_RDPS_AbsoluteVorticity_IsbL-0850_RLatLon0.09_PT081H.grib2 2026-04-27 21:04 766K
20260427T18Z_MSC_RDPS_AirTemp_AGL-120m_RLatLon0.09_PT081H.grib2 2026-04-27 21:04 383K
20260427T18Z_MSC_RDPS_AirTemp_AGL-2m_RLatLon0.09_PT081H.grib2 2026-04-27 21:04 622K
20260427T18Z_MSC_RDPS_AirTemp_AGL-40m_RLatLon0.09_PT081H.grib2 2026-04-27 21:04 396K
20260427T18Z_MSC_RDPS_AirTemp_AGL-80m_RLatLon0.09_PT081H.grib2 2026-04-27 21:04 388K
20260427T18Z_MSC_RDPS_AirTemp_IsbL-0001_RLatLon0.09_PT081H.grib2 2026-04-27 21:04 297K
20260427T18Z_MSC_RDPS_AirTemp_IsbL-0005_RLatLon0.09_PT081H.grib2 2026-04-27 21:04 288K
20260427T18Z_MSC_RDPS_AirTemp_IsbL-0010_RLatLon0.09_PT081H.grib2 2026-04-27 21:04 301K
20260427T18Z_MSC_RDPS_AirTemp_IsbL-0020_RLatLon0.09_PT081H.grib2 2026-04-27 21:04 317K
20260427T18Z_MSC_RDPS_AirTemp_IsbL-0030_RLatLon0.09_PT081H.grib2 2026-04-27 21:04 338K
20260427T18Z_MSC_RDPS_AirTemp_IsbL-0050_RLatLon0.09_PT081H.grib2 2026-04-27 21:04 311K
20260427T18Z_MSC_RDPS_AirTemp_IsbL-0100_RLatLon0.09_PT081H.grib2 2026-04-27 21:04 418K
20260427T18Z_MSC_RDPS_AirTemp_IsbL-0150_RLatLon0.09_PT081H.grib2 2026-04-27 21:04 417K
20260427T18Z_MSC_RDPS_AirTemp_IsbL-0175_RLatLon0.09_PT081H.grib2 2026-04-27 21:04 407K
20260427T18Z_MSC_RDPS_AirTemp_IsbL-0200_RLatLon0.09_PT081H.grib2 2026-04-27 21:04 410K
20260427T18Z_MSC_RDPS_AirTemp_IsbL-0225_RLatLon0.09_PT081H.grib2 2026-04-27 21:04 412K
20260427T18Z_MSC_RDPS_AirTemp_IsbL-0250_RLatLon0.09_PT081H.grib2 2026-04-27 21:04 421K
20260427T18Z_MSC_RDPS_AirTemp_IsbL-0275_RLatLon0.09_PT081H.grib2 2026-04-27 21:04 401K
20260427T18Z_MSC_RDPS_AirTemp_IsbL-0300_RLatLon0.09_PT081H.grib2 2026-04-27 21:04 409K
20260427T18Z_MSC_RDPS_AirTemp_IsbL-0350_RLatLon0.09_PT081H.grib2 2026-04-27 21:04 422K
20260427T18Z_MSC_RDPS_AirTemp_IsbL-0400_RLatLon0.09_PT081H.grib2 2026-04-27 21:04 423K
20260427T18Z_MSC_RDPS_AirTemp_IsbL-0450_RLatLon0.09_PT081H.grib2 2026-04-27 21:04 396K
20260427T18Z_MSC_RDPS_AirTemp_IsbL-0500_RLatLon0.09_PT081H.grib2 2026-04-27 21:04 406K
20260427T18Z_MSC_RDPS_AirTemp_IsbL-0550_RLatLon0.09_PT081H.grib2 2026-04-27 21:04 423K
20260427T18Z_MSC_RDPS_AirTemp_IsbL-0600_RLatLon0.09_PT081H.grib2 2026-04-27 21:04 440K
20260427T18Z_MSC_RDPS_AirTemp_IsbL-0650_RLatLon0.09_PT081H.grib2 2026-04-27 21:04 455K
20260427T18Z_MSC_RDPS_AirTemp_IsbL-0700_RLatLon0.09_PT081H.grib2 2026-04-27 21:04 373K
20260427T18Z_MSC_RDPS_AirTemp_IsbL-0750_RLatLon0.09_PT081H.grib2 2026-04-27 21:04 401K
20260427T18Z_MSC_RDPS_AirTemp_IsbL-0800_RLatLon0.09_PT081H.grib2 2026-04-27 21:04 437K
20260427T18Z_MSC_RDPS_AirTemp_IsbL-0850_RLatLon0.09_PT081H.grib2 2026-04-27 21:04 485K
20260427T18Z_MSC_RDPS_AirTemp_IsbL-0875_RLatLon0.09_PT081H.grib2 2026-04-27 21:04 506K
20260427T18Z_MSC_RDPS_AirTemp_IsbL-0900_RLatLon0.09_PT081H.grib2 2026-04-27 21:04 517K
20260427T18Z_MSC_RDPS_AirTemp_IsbL-0925_RLatLon0.09_PT081H.grib2 2026-04-27 21:04 517K
20260427T18Z_MSC_RDPS_AirTemp_IsbL-0950_RLatLon0.09_PT081H.grib2 2026-04-27 21:04 518K
20260427T18Z_MSC_RDPS_AirTemp_IsbL-0970_RLatLon0.09_PT081H.grib2 2026-04-27 21:04 510K
20260427T18Z_MSC_RDPS_AirTemp_IsbL-0985_RLatLon0.09_PT081H.grib2 2026-04-27 21:04 501K
20260427T18Z_MSC_RDPS_AirTemp_IsbL-1000_RLatLon0.09_PT081H.grib2 2026-04-27 21:04 487K
20260427T18Z_MSC_RDPS_AirTemp_IsbL-1015_RLatLon0.09_PT081H.grib2 2026-04-27 21:04 482K
20260427T18Z_MSC_RDPS_Albedo_Sfc_RLatLon0.09_PT081H.grib2 2026-04-27 21:04 161K
20260427T18Z_MSC_RDPS_CAPE_Sfc_RLatLon0.09_PT081H.grib2 2026-04-27 21:04 1.6M
20260427T18Z_MSC_RDPS_CIN_Sfc_RLatLon0.09_PT081H.grib2 2026-04-27 21:04 1.2M
20260427T18Z_MSC_RDPS_CloudWater_EAtm_RLatLon0.09_PT081H.grib2 2026-04-27 21:04 221K
20260427T18Z_MSC_RDPS_ConvectivePrecip-Accum_Sfc_RLatLon0.09_PT081H.grib2 2026-04-27 21:04 1.3M
20260427T18Z_MSC_RDPS_DewPointDepression_AGL-2m_RLatLon0.09_PT081H.grib2 2026-04-27 21:04 393K
20260427T18Z_MSC_RDPS_DewPointDepression_IsbL-0001_RLatLon0.09_PT081H.grib2 2026-04-27 21:04 193
20260427T18Z_MSC_RDPS_DewPointDepression_IsbL-0005_RLatLon0.09_PT081H.grib2 2026-04-27 21:04 193
20260427T18Z_MSC_RDPS_DewPointDepression_IsbL-0010_RLatLon0.09_PT081H.grib2 2026-04-27 21:04 193
20260427T18Z_MSC_RDPS_DewPointDepression_IsbL-0020_RLatLon0.09_PT081H.grib2 2026-04-27 21:04 193
20260427T18Z_MSC_RDPS_DewPointDepression_IsbL-0030_RLatLon0.09_PT081H.grib2 2026-04-27 21:04 193
20260427T18Z_MSC_RDPS_DewPointDepression_IsbL-0050_RLatLon0.09_PT081H.grib2 2026-04-27 21:04 80K
20260427T18Z_MSC_RDPS_DewPointDepression_IsbL-0100_RLatLon0.09_PT081H.grib2 2026-04-27 21:04 124K
20260427T18Z_MSC_RDPS_DewPointDepression_IsbL-0150_RLatLon0.09_PT081H.grib2 2026-04-27 21:04 145K
20260427T18Z_MSC_RDPS_DewPointDepression_IsbL-0175_RLatLon0.09_PT081H.grib2 2026-04-27 21:04 178K
20260427T18Z_MSC_RDPS_DewPointDepression_IsbL-0200_RLatLon0.09_PT081H.grib2 2026-04-27 21:04 214K
20260427T18Z_MSC_RDPS_DewPointDepression_IsbL-0225_RLatLon0.09_PT081H.grib2 2026-04-27 21:04 258K
20260427T18Z_MSC_RDPS_DewPointDepression_IsbL-0250_RLatLon0.09_PT081H.grib2 2026-04-27 21:04 300K
20260427T18Z_MSC_RDPS_DewPointDepression_IsbL-0275_RLatLon0.09_PT081H.grib2 2026-04-27 21:04 307K
20260427T18Z_MSC_RDPS_DewPointDepression_IsbL-0300_RLatLon0.09_PT081H.grib2 2026-04-27 21:04 328K
20260427T18Z_MSC_RDPS_DewPointDepression_IsbL-0350_RLatLon0.09_PT081H.grib2 2026-04-27 21:04 329K
20260427T18Z_MSC_RDPS_DewPointDepression_IsbL-0400_RLatLon0.09_PT081H.grib2 2026-04-27 21:04 339K
20260427T18Z_MSC_RDPS_DewPointDepression_IsbL-0450_RLatLon0.09_PT081H.grib2 2026-04-27 21:04 349K
20260427T18Z_MSC_RDPS_DewPointDepression_IsbL-0500_RLatLon0.09_PT081H.grib2 2026-04-27 21:04 355K
20260427T18Z_MSC_RDPS_DewPointDepression_IsbL-0550_RLatLon0.09_PT081H.grib2 2026-04-27 21:04 364K
20260427T18Z_MSC_RDPS_DewPointDepression_IsbL-0600_RLatLon0.09_PT081H.grib2 2026-04-27 21:04 378K
20260427T18Z_MSC_RDPS_DewPointDepression_IsbL-0650_RLatLon0.09_PT081H.grib2 2026-04-27 21:04 386K
20260427T18Z_MSC_RDPS_DewPointDepression_IsbL-0700_RLatLon0.09_PT081H.grib2 2026-04-27 21:04 396K
20260427T18Z_MSC_RDPS_DewPointDepression_IsbL-0750_RLatLon0.09_PT081H.grib2 2026-04-27 21:04 416K
20260427T18Z_MSC_RDPS_DewPointDepression_IsbL-0800_RLatLon0.09_PT081H.grib2 2026-04-27 21:04 441K
20260427T18Z_MSC_RDPS_DewPointDepression_IsbL-0850_RLatLon0.09_PT081H.grib2 2026-04-27 21:04 467K
20260427T18Z_MSC_RDPS_DewPointDepression_IsbL-0875_RLatLon0.09_PT081H.grib2 2026-04-27 21:04 473K
20260427T18Z_MSC_RDPS_DewPointDepression_IsbL-0900_RLatLon0.09_PT081H.grib2 2026-04-27 21:04 465K
20260427T18Z_MSC_RDPS_DewPointDepression_IsbL-0925_RLatLon0.09_PT081H.grib2 2026-04-27 21:04 448K
20260427T18Z_MSC_RDPS_DewPointDepression_IsbL-0950_RLatLon0.09_PT081H.grib2 2026-04-27 21:04 440K
20260427T18Z_MSC_RDPS_DewPointDepression_IsbL-0970_RLatLon0.09_PT081H.grib2 2026-04-27 21:04 428K
20260427T18Z_MSC_RDPS_DewPointDepression_IsbL-0985_RLatLon0.09_PT081H.grib2 2026-04-27 21:04 423K
20260427T18Z_MSC_RDPS_DewPointDepression_IsbL-1000_RLatLon0.09_PT081H.grib2 2026-04-27 21:04 417K
20260427T18Z_MSC_RDPS_DewPointDepression_IsbL-1015_RLatLon0.09_PT081H.grib2 2026-04-27 21:04 407K
20260427T18Z_MSC_RDPS_DewPoint_AGL-2m_RLatLon0.09_PT081H.grib2 2026-04-27 21:04 304K
20260427T18Z_MSC_RDPS_DownwardLongwaveRadiationFlux-Accum_Sfc_RLatLon0.09_PT081H.grib2 2026-04-27 21:04 436K
20260427T18Z_MSC_RDPS_DownwardShortwaveRadiationFlux-Accum_NTAtm_RLatLon0.09_PT081H.grib2 2026-04-27 21:04 113K
20260427T18Z_MSC_RDPS_DownwardShortwaveRadiationFlux-Accum_Sfc_RLatLon0.09_PT081H.grib2 2026-04-27 21:04 638K
20260427T18Z_MSC_RDPS_FreezingRain-Accum1h_Sfc_RLatLon0.09_PT081H.grib2 2026-04-27 21:04 29K
20260427T18Z_MSC_RDPS_FreezingRain-Accum3h_Sfc_RLatLon0.09_PT081H.grib2 2026-04-27 21:04 32K
20260427T18Z_MSC_RDPS_FreezingRain-Accum_Sfc_RLatLon0.09_PT081H.grib2 2026-04-27 21:04 224K
20260427T18Z_MSC_RDPS_GeopotentialHeight_IsbL-0001_RLatLon0.09_PT081H.grib2 2026-04-27 21:04 304K
20260427T18Z_MSC_RDPS_GeopotentialHeight_IsbL-0005_RLatLon0.09_PT081H.grib2 2026-04-27 21:04 330K
20260427T18Z_MSC_RDPS_GeopotentialHeight_IsbL-0010_RLatLon0.09_PT081H.grib2 2026-04-27 21:04 298K
20260427T18Z_MSC_RDPS_GeopotentialHeight_IsbL-0020_RLatLon0.09_PT081H.grib2 2026-04-27 21:04 298K
20260427T18Z_MSC_RDPS_GeopotentialHeight_IsbL-0030_RLatLon0.09_PT081H.grib2 2026-04-27 21:04 299K
20260427T18Z_MSC_RDPS_GeopotentialHeight_IsbL-0050_RLatLon0.09_PT081H.grib2 2026-04-27 21:04 301K
20260427T18Z_MSC_RDPS_GeopotentialHeight_IsbL-0100_RLatLon0.09_PT081H.grib2 2026-04-27 21:04 279K
20260427T18Z_MSC_RDPS_GeopotentialHeight_IsbL-0150_RLatLon0.09_PT081H.grib2 2026-04-27 21:04 223K
20260427T18Z_MSC_RDPS_GeopotentialHeight_IsbL-0175_RLatLon0.09_PT081H.grib2 2026-04-27 21:04 257K
20260427T18Z_MSC_RDPS_GeopotentialHeight_IsbL-0200_RLatLon0.09_PT081H.grib2 2026-04-27 21:04 259K
20260427T18Z_MSC_RDPS_GeopotentialHeight_IsbL-0225_RLatLon0.09_PT081H.grib2 2026-04-27 21:04 261K
20260427T18Z_MSC_RDPS_GeopotentialHeight_IsbL-0250_RLatLon0.09_PT081H.grib2 2026-04-27 21:04 263K
20260427T18Z_MSC_RDPS_GeopotentialHeight_IsbL-0275_RLatLon0.09_PT081H.grib2 2026-04-27 21:04 262K
20260427T18Z_MSC_RDPS_GeopotentialHeight_IsbL-0300_RLatLon0.09_PT081H.grib2 2026-04-27 21:04 262K
20260427T18Z_MSC_RDPS_GeopotentialHeight_IsbL-0350_RLatLon0.09_PT081H.grib2 2026-04-27 21:04 228K
20260427T18Z_MSC_RDPS_GeopotentialHeight_IsbL-0400_RLatLon0.09_PT081H.grib2 2026-04-27 21:04 225K
20260427T18Z_MSC_RDPS_GeopotentialHeight_IsbL-0450_RLatLon0.09_PT081H.grib2 2026-04-27 21:04 293K
20260427T18Z_MSC_RDPS_GeopotentialHeight_IsbL-0500_RLatLon0.09_PT081H.grib2 2026-04-27 21:04 288K
20260427T18Z_MSC_RDPS_GeopotentialHeight_IsbL-0550_RLatLon0.09_PT081H.grib2 2026-04-27 21:04 285K
20260427T18Z_MSC_RDPS_GeopotentialHeight_IsbL-0600_RLatLon0.09_PT081H.grib2 2026-04-27 21:04 254K
20260427T18Z_MSC_RDPS_GeopotentialHeight_IsbL-0650_RLatLon0.09_PT081H.grib2 2026-04-27 21:04 252K
20260427T18Z_MSC_RDPS_GeopotentialHeight_IsbL-0700_RLatLon0.09_PT081H.grib2 2026-04-27 21:04 332K
20260427T18Z_MSC_RDPS_GeopotentialHeight_IsbL-0750_RLatLon0.09_PT081H.grib2 2026-04-27 21:04 334K
20260427T18Z_MSC_RDPS_GeopotentialHeight_IsbL-0800_RLatLon0.09_PT081H.grib2 2026-04-27 21:04 340K
20260427T18Z_MSC_RDPS_GeopotentialHeight_IsbL-0850_RLatLon0.09_PT081H.grib2 2026-04-27 21:04 379K
20260427T18Z_MSC_RDPS_GeopotentialHeight_IsbL-0875_RLatLon0.09_PT081H.grib2 2026-04-27 21:04 382K
20260427T18Z_MSC_RDPS_GeopotentialHeight_IsbL-0900_RLatLon0.09_PT081H.grib2 2026-04-27 21:04 386K
20260427T18Z_MSC_RDPS_GeopotentialHeight_IsbL-0925_RLatLon0.09_PT081H.grib2 2026-04-27 21:04 389K
20260427T18Z_MSC_RDPS_GeopotentialHeight_IsbL-0950_RLatLon0.09_PT081H.grib2 2026-04-27 21:04 359K
20260427T18Z_MSC_RDPS_GeopotentialHeight_IsbL-0970_RLatLon0.09_PT081H.grib2 2026-04-27 21:04 366K
20260427T18Z_MSC_RDPS_GeopotentialHeight_IsbL-0985_RLatLon0.09_PT081H.grib2 2026-04-27 21:04 374K
20260427T18Z_MSC_RDPS_GeopotentialHeight_IsbL-1000_RLatLon0.09_PT081H.grib2 2026-04-27 21:04 384K
20260427T18Z_MSC_RDPS_GeopotentialHeight_IsbL-1015_RLatLon0.09_PT081H.grib2 2026-04-27 21:04 398K
20260427T18Z_MSC_RDPS_Humidex_Sfc_RLatLon0.09_PT081H.grib2 2026-04-27 21:04 2.3M
20260427T18Z_MSC_RDPS_IcePellets-Accum1h_Sfc_RLatLon0.09_PT081H.grib2 2026-04-27 21:04 2.4K
20260427T18Z_MSC_RDPS_IcePellets-Accum3h_Sfc_RLatLon0.09_PT081H.grib2 2026-04-27 21:04 2.8K
20260427T18Z_MSC_RDPS_IcePellets-Accum_Sfc_RLatLon0.09_PT081H.grib2 2026-04-27 21:04 38K
20260427T18Z_MSC_RDPS_KIndex_Sfc_RLatLon0.09_PT081H.grib2 2026-04-27 21:04 2.5M
20260427T18Z_MSC_RDPS_LatentHeatNetFlux_Sfc_RLatLon0.09_PT081H.grib2 2026-04-27 21:04 398K
20260427T18Z_MSC_RDPS_LiftedIndex-MU-VT_IsbL-0500_RLatLon0.09_PT081H.grib2 2026-04-27 21:04 2.4M
20260427T18Z_MSC_RDPS_NetLongwaveRadiationFlux-Accum_Sfc_RLatLon0.09_PT081H.grib2 2026-04-27 21:04 483K
20260427T18Z_MSC_RDPS_NetShortwaveRadiationFlux-Accum_Sfc_RLatLon0.09_PT081H.grib2 2026-04-27 21:04 642K
20260427T18Z_MSC_RDPS_PlanetaryBoundaryLayerHeight_Sfc_RLatLon0.09_PT081H.grib2 2026-04-27 21:04 1.1M
20260427T18Z_MSC_RDPS_Precip-Accum1h_Sfc_RLatLon0.09_PT081H.grib2 2026-04-27 21:04 1.2M
20260427T18Z_MSC_RDPS_Precip-Accum3h_Sfc_RLatLon0.09_PT081H.grib2 2026-04-27 21:04 1.3M
20260427T18Z_MSC_RDPS_Precip-Accum_Sfc_RLatLon0.09_PT081H.grib2 2026-04-27 21:04 2.1M
20260427T18Z_MSC_RDPS_PrecipRate_Sfc_RLatLon0.09_PT081H.grib2 2026-04-27 21:04 155K
20260427T18Z_MSC_RDPS_PrecipType-Instant_Sfc_RLatLon0.09_PT081H.grib2 2026-04-27 21:04 547K
20260427T18Z_MSC_RDPS_Pressure-Trend3h_Sfc_RLatLon0.09_PT081H.grib2 2026-04-27 21:04 1.2M
20260427T18Z_MSC_RDPS_Pressure_MSL_RLatLon0.09_PT081H.grib2 2026-04-27 21:04 320K
20260427T18Z_MSC_RDPS_Pressure_PVU-1.5_RLatLon0.09_PT081H.grib2 2026-04-27 21:04 2.3M
20260427T18Z_MSC_RDPS_Pressure_PVU-1_RLatLon0.09_PT081H.grib2 2026-04-27 21:04 2.4M
20260427T18Z_MSC_RDPS_Pressure_PVU-2_RLatLon0.09_PT081H.grib2 2026-04-27 21:04 2.4M
20260427T18Z_MSC_RDPS_Pressure_Sfc_RLatLon0.09_PT081H.grib2 2026-04-27 21:04 497K
20260427T18Z_MSC_RDPS_RadiativeTemp_Sfc_RLatLon0.09_PT081H.grib2 2026-04-27 21:04 304K
20260427T18Z_MSC_RDPS_Rain-Accum1h_Sfc_RLatLon0.09_PT081H.grib2 2026-04-27 21:04 574K
20260427T18Z_MSC_RDPS_Rain-Accum3h_Sfc_RLatLon0.09_PT081H.grib2 2026-04-27 21:04 652K
20260427T18Z_MSC_RDPS_Rain-Accum_Sfc_RLatLon0.09_PT081H.grib2 2026-04-27 21:04 1.7M
20260427T18Z_MSC_RDPS_RelativeHumidity_AGL-2m_RLatLon0.09_PT081H.grib2 2026-04-27 21:04 1.0M
20260427T18Z_MSC_RDPS_RelativeHumidity_IsbL-0010_RLatLon0.09_PT081H.grib2 2026-04-27 21:04 616K
20260427T18Z_MSC_RDPS_RelativeHumidity_IsbL-0020_RLatLon0.09_PT081H.grib2 2026-04-27 21:04 663K
20260427T18Z_MSC_RDPS_RelativeHumidity_IsbL-0030_RLatLon0.09_PT081H.grib2 2026-04-27 21:04 602K
20260427T18Z_MSC_RDPS_RelativeHumidity_IsbL-0050_RLatLon0.09_PT081H.grib2 2026-04-27 21:04 365K
20260427T18Z_MSC_RDPS_RelativeHumidity_IsbL-0100_RLatLon0.09_PT081H.grib2 2026-04-27 21:04 272K
20260427T18Z_MSC_RDPS_RelativeHumidity_IsbL-0150_RLatLon0.09_PT081H.grib2 2026-04-27 21:04 398K
20260427T18Z_MSC_RDPS_RelativeHumidity_IsbL-0175_RLatLon0.09_PT081H.grib2 2026-04-27 21:04 465K
20260427T18Z_MSC_RDPS_RelativeHumidity_IsbL-0200_RLatLon0.09_PT081H.grib2 2026-04-27 21:04 546K
20260427T18Z_MSC_RDPS_RelativeHumidity_IsbL-0225_RLatLon0.09_PT081H.grib2 2026-04-27 21:04 616K
20260427T18Z_MSC_RDPS_RelativeHumidity_IsbL-0250_RLatLon0.09_PT081H.grib2 2026-04-27 21:04 697K
20260427T18Z_MSC_RDPS_RelativeHumidity_IsbL-0275_RLatLon0.09_PT081H.grib2 2026-04-27 21:04 726K
20260427T18Z_MSC_RDPS_RelativeHumidity_IsbL-0300_RLatLon0.09_PT081H.grib2 2026-04-27 21:04 772K
20260427T18Z_MSC_RDPS_RelativeHumidity_IsbL-0350_RLatLon0.09_PT081H.grib2 2026-04-27 21:04 783K
20260427T18Z_MSC_RDPS_RelativeHumidity_IsbL-0400_RLatLon0.09_PT081H.grib2 2026-04-27 21:04 795K
20260427T18Z_MSC_RDPS_RelativeHumidity_IsbL-0450_RLatLon0.09_PT081H.grib2 2026-04-27 21:04 799K
20260427T18Z_MSC_RDPS_RelativeHumidity_IsbL-0500_RLatLon0.09_PT081H.grib2 2026-04-27 21:04 804K
20260427T18Z_MSC_RDPS_RelativeHumidity_IsbL-0550_RLatLon0.09_PT081H.grib2 2026-04-27 21:04 817K
20260427T18Z_MSC_RDPS_RelativeHumidity_IsbL-0600_RLatLon0.09_PT081H.grib2 2026-04-27 21:04 841K
20260427T18Z_MSC_RDPS_RelativeHumidity_IsbL-0650_RLatLon0.09_PT081H.grib2 2026-04-27 21:04 858K
20260427T18Z_MSC_RDPS_RelativeHumidity_IsbL-0700_RLatLon0.09_PT081H.grib2 2026-04-27 21:04 884K
20260427T18Z_MSC_RDPS_RelativeHumidity_IsbL-0750_RLatLon0.09_PT081H.grib2 2026-04-27 21:04 929K
20260427T18Z_MSC_RDPS_RelativeHumidity_IsbL-0800_RLatLon0.09_PT081H.grib2 2026-04-27 21:04 1.0M
20260427T18Z_MSC_RDPS_RelativeHumidity_IsbL-0850_RLatLon0.09_PT081H.grib2 2026-04-27 21:04 1.0M
20260427T18Z_MSC_RDPS_RelativeHumidity_IsbL-0875_RLatLon0.09_PT081H.grib2 2026-04-27 21:04 1.0M
20260427T18Z_MSC_RDPS_RelativeHumidity_IsbL-0900_RLatLon0.09_PT081H.grib2 2026-04-27 21:04 1.1M
20260427T18Z_MSC_RDPS_RelativeHumidity_IsbL-0925_RLatLon0.09_PT081H.grib2 2026-04-27 21:04 1.1M
20260427T18Z_MSC_RDPS_RelativeHumidity_IsbL-0950_RLatLon0.09_PT081H.grib2 2026-04-27 21:04 1.1M
20260427T18Z_MSC_RDPS_RelativeHumidity_IsbL-0970_RLatLon0.09_PT081H.grib2 2026-04-27 21:04 1.0M
20260427T18Z_MSC_RDPS_RelativeHumidity_IsbL-0985_RLatLon0.09_PT081H.grib2 2026-04-27 21:04 1.0M
20260427T18Z_MSC_RDPS_RelativeHumidity_IsbL-1000_RLatLon0.09_PT081H.grib2 2026-04-27 21:04 1.0M
20260427T18Z_MSC_RDPS_RelativeHumidity_IsbL-1015_RLatLon0.09_PT081H.grib2 2026-04-27 21:04 1.0M
20260427T18Z_MSC_RDPS_Runoff-Accum_Sfc_RLatLon0.09_PT081H.grib2 2026-04-27 21:04 68K
20260427T18Z_MSC_RDPS_SWEATIndex_Sfc_RLatLon0.09_PT081H.grib2 2026-04-27 21:04 2.4M
20260427T18Z_MSC_RDPS_SeeingIndex_EAtm_RLatLon0.09_PT081H.grib2 2026-04-27 21:04 1.0M
20260427T18Z_MSC_RDPS_SensibleHeatNetFlux_Sfc_RLatLon0.09_PT081H.grib2 2026-04-27 21:04 282K
20260427T18Z_MSC_RDPS_ShowalterIndex_IsbL-0500_RLatLon0.09_PT081H.grib2 2026-04-27 21:04 2.6M
20260427T18Z_MSC_RDPS_SkyTransparencyIndex_EAtm_RLatLon0.09_PT081H.grib2 2026-04-27 21:04 695K
20260427T18Z_MSC_RDPS_Snow-Accum1h_Sfc_RLatLon0.09_PT081H.grib2 2026-04-27 21:04 462K
20260427T18Z_MSC_RDPS_Snow-Accum3h_Sfc_RLatLon0.09_PT081H.grib2 2026-04-27 21:04 461K
20260427T18Z_MSC_RDPS_Snow-Accum_Sfc_RLatLon0.09_PT081H.grib2 2026-04-27 21:04 835K
20260427T18Z_MSC_RDPS_SnowDensity_Sfc_RLatLon0.09_PT081H.grib2 2026-04-27 21:04 183K
20260427T18Z_MSC_RDPS_SnowDepth_Sfc_RLatLon0.09_PT081H.grib2 2026-04-27 21:04 684K
20260427T18Z_MSC_RDPS_SoilTemp_DBS-0to10cm_RLatLon0.09_PT081H.grib2 2026-04-27 21:04 245K
20260427T18Z_MSC_RDPS_SoilTemp_Sfc_RLatLon0.09_PT081H.grib2 2026-04-27 21:04 281K
20260427T18Z_MSC_RDPS_SoilVolumetricIceContent_Sfc_RLatLon0.09_PT081H.grib2 2026-04-27 21:04 163K
20260427T18Z_MSC_RDPS_SoilVolumetricWaterContent_DBS-0to10cm_RLatLon0.09_PT081H.grib2 2026-04-27 21:04 270K
20260427T18Z_MSC_RDPS_SoilVolumetricWaterContent_DBS-0to1cm_RLatLon0.09_PT081H.grib2 2026-04-27 21:04 339K
20260427T18Z_MSC_RDPS_SpecificHumidity_AGL-120m_RLatLon0.09_PT081H.grib2 2026-04-27 21:04 480K
20260427T18Z_MSC_RDPS_SpecificHumidity_AGL-2m_RLatLon0.09_PT081H.grib2 2026-04-27 21:04 647K
20260427T18Z_MSC_RDPS_SpecificHumidity_AGL-40m_RLatLon0.09_PT081H.grib2 2026-04-27 21:04 487K
20260427T18Z_MSC_RDPS_SpecificHumidity_AGL-80m_RLatLon0.09_PT081H.grib2 2026-04-27 21:04 481K
20260427T18Z_MSC_RDPS_SpecificHumidity_IsbL-0001_RLatLon0.09_PT081H.grib2 2026-04-27 21:04 352K
20260427T18Z_MSC_RDPS_SpecificHumidity_IsbL-0005_RLatLon0.09_PT081H.grib2 2026-04-27 21:04 351K
20260427T18Z_MSC_RDPS_SpecificHumidity_IsbL-0010_RLatLon0.09_PT081H.grib2 2026-04-27 21:04 388K
20260427T18Z_MSC_RDPS_SpecificHumidity_IsbL-0020_RLatLon0.09_PT081H.grib2 2026-04-27 21:04 371K
20260427T18Z_MSC_RDPS_SpecificHumidity_IsbL-0030_RLatLon0.09_PT081H.grib2 2026-04-27 21:04 462K
20260427T18Z_MSC_RDPS_SpecificHumidity_IsbL-0050_RLatLon0.09_PT081H.grib2 2026-04-27 21:04 436K
20260427T18Z_MSC_RDPS_SpecificHumidity_IsbL-0100_RLatLon0.09_PT081H.grib2 2026-04-27 21:04 411K
20260427T18Z_MSC_RDPS_SpecificHumidity_IsbL-0150_RLatLon0.09_PT081H.grib2 2026-04-27 21:04 444K
20260427T18Z_MSC_RDPS_SpecificHumidity_IsbL-0175_RLatLon0.09_PT081H.grib2 2026-04-27 21:04 424K
20260427T18Z_MSC_RDPS_SpecificHumidity_IsbL-0200_RLatLon0.09_PT081H.grib2 2026-04-27 21:04 459K
20260427T18Z_MSC_RDPS_SpecificHumidity_IsbL-0225_RLatLon0.09_PT081H.grib2 2026-04-27 21:04 447K
20260427T18Z_MSC_RDPS_SpecificHumidity_IsbL-0250_RLatLon0.09_PT081H.grib2 2026-04-27 21:04 516K
20260427T18Z_MSC_RDPS_SpecificHumidity_IsbL-0275_RLatLon0.09_PT081H.grib2 2026-04-27 21:04 477K
20260427T18Z_MSC_RDPS_SpecificHumidity_IsbL-0300_RLatLon0.09_PT081H.grib2 2026-04-27 21:04 453K
20260427T18Z_MSC_RDPS_SpecificHumidity_IsbL-0350_RLatLon0.09_PT081H.grib2 2026-04-27 21:04 440K
20260427T18Z_MSC_RDPS_SpecificHumidity_IsbL-0400_RLatLon0.09_PT081H.grib2 2026-04-27 21:04 521K
20260427T18Z_MSC_RDPS_SpecificHumidity_IsbL-0450_RLatLon0.09_PT081H.grib2 2026-04-27 21:04 458K
20260427T18Z_MSC_RDPS_SpecificHumidity_IsbL-0500_RLatLon0.09_PT081H.grib2 2026-04-27 21:04 509K
20260427T18Z_MSC_RDPS_SpecificHumidity_IsbL-0550_RLatLon0.09_PT081H.grib2 2026-04-27 21:04 580K
20260427T18Z_MSC_RDPS_SpecificHumidity_IsbL-0600_RLatLon0.09_PT081H.grib2 2026-04-27 21:04 636K
20260427T18Z_MSC_RDPS_SpecificHumidity_IsbL-0650_RLatLon0.09_PT081H.grib2 2026-04-27 21:04 555K
20260427T18Z_MSC_RDPS_SpecificHumidity_IsbL-0700_RLatLon0.09_PT081H.grib2 2026-04-27 21:04 598K
20260427T18Z_MSC_RDPS_SpecificHumidity_IsbL-0750_RLatLon0.09_PT081H.grib2 2026-04-27 21:04 652K
20260427T18Z_MSC_RDPS_SpecificHumidity_IsbL-0800_RLatLon0.09_PT081H.grib2 2026-04-27 21:04 726K
20260427T18Z_MSC_RDPS_SpecificHumidity_IsbL-0850_RLatLon0.09_PT081H.grib2 2026-04-27 21:04 795K
20260427T18Z_MSC_RDPS_SpecificHumidity_IsbL-0875_RLatLon0.09_PT081H.grib2 2026-04-27 21:04 822K
20260427T18Z_MSC_RDPS_SpecificHumidity_IsbL-0900_RLatLon0.09_PT081H.grib2 2026-04-27 21:04 838K
20260427T18Z_MSC_RDPS_SpecificHumidity_IsbL-0925_RLatLon0.09_PT081H.grib2 2026-04-27 21:04 839K
20260427T18Z_MSC_RDPS_SpecificHumidity_IsbL-0950_RLatLon0.09_PT081H.grib2 2026-04-27 21:04 698K
20260427T18Z_MSC_RDPS_SpecificHumidity_IsbL-0970_RLatLon0.09_PT081H.grib2 2026-04-27 21:04 685K
20260427T18Z_MSC_RDPS_SpecificHumidity_IsbL-0985_RLatLon0.09_PT081H.grib2 2026-04-27 21:04 674K
20260427T18Z_MSC_RDPS_SpecificHumidity_IsbL-1000_RLatLon0.09_PT081H.grib2 2026-04-27 21:04 665K
20260427T18Z_MSC_RDPS_SpecificHumidity_IsbL-1015_RLatLon0.09_PT081H.grib2 2026-04-27 21:04 655K
20260427T18Z_MSC_RDPS_SpecificHumidity_Sfc_RLatLon0.09_PT081H.grib2 2026-04-27 21:04 315K
20260427T18Z_MSC_RDPS_StormRelativeHelicity_EtaL-10000_RLatLon0.09_PT081H.grib2 2026-04-27 21:04 1.1M
20260427T18Z_MSC_RDPS_StormSeverityIndex_EtaL-10000_RLatLon0.09_PT081H.grib2 2026-04-27 21:04 1.2M
20260427T18Z_MSC_RDPS_Thickness_IsbL-0850to0700_RLatLon0.09_PT081H.grib2 2026-04-27 21:04 192K
20260427T18Z_MSC_RDPS_Thickness_IsbL-1000to0500_RLatLon0.09_PT081H.grib2 2026-04-27 21:04 195K
20260427T18Z_MSC_RDPS_Thickness_IsbL-1000to0850_RLatLon0.09_PT081H.grib2 2026-04-27 21:04 181K
20260427T18Z_MSC_RDPS_TotalCloudCover_Sfc_RLatLon0.09_PT081H.grib2 2026-04-27 21:04 651K
20260427T18Z_MSC_RDPS_TotalTotalsIndex_Sfc_RLatLon0.09_PT081H.grib2 2026-04-27 21:04 2.4M
20260427T18Z_MSC_RDPS_UVIndex-ClearSky_Sfc_RLatLon0.09_PT081H.grib2 2026-04-27 21:04 95K
20260427T18Z_MSC_RDPS_UVIndex_Sfc_RLatLon0.09_PT081H.grib2 2026-04-27 21:04 192K
20260427T18Z_MSC_RDPS_UpwardLongwaveRadiationFlux_NTAtm_RLatLon0.09_PT081H.grib2 2026-04-27 21:04 485K
20260427T18Z_MSC_RDPS_UpwardShortwaveRadiationFlux_NTAtm_RLatLon0.09_PT081H.grib2 2026-04-27 21:04 190K
20260427T18Z_MSC_RDPS_VerticalVelocity_IsbL-0250_RLatLon0.09_PT081H.grib2 2026-04-27 21:04 544K
20260427T18Z_MSC_RDPS_VerticalVelocity_IsbL-0500_RLatLon0.09_PT081H.grib2 2026-04-27 21:04 539K
20260427T18Z_MSC_RDPS_VerticalVelocity_IsbL-0700_RLatLon0.09_PT081H.grib2 2026-04-27 21:04 585K
20260427T18Z_MSC_RDPS_VerticalVelocity_IsbL-0850_RLatLon0.09_PT081H.grib2 2026-04-27 21:04 630K
20260427T18Z_MSC_RDPS_VerticalWindShear_EtaL-6500_RLatLon0.09_PT081H.grib2 2026-04-27 21:04 1.2M
20260427T18Z_MSC_RDPS_WindChill_Sfc_RLatLon0.09_PT081H.grib2 2026-04-27 21:04 1.1M
20260427T18Z_MSC_RDPS_WindDir_AGL-10m_RLatLon0.09_PT081H.grib2 2026-04-27 21:04 961K
20260427T18Z_MSC_RDPS_WindDir_AGL-120m_RLatLon0.09_PT081H.grib2 2026-04-27 21:04 600K
20260427T18Z_MSC_RDPS_WindDir_AGL-40m_RLatLon0.09_PT081H.grib2 2026-04-27 21:04 631K
20260427T18Z_MSC_RDPS_WindDir_AGL-80m_RLatLon0.09_PT081H.grib2 2026-04-27 21:04 611K
20260427T18Z_MSC_RDPS_WindDir_IsbL-0001_RLatLon0.09_PT081H.grib2 2026-04-27 21:04 321K
20260427T18Z_MSC_RDPS_WindDir_IsbL-0005_RLatLon0.09_PT081H.grib2 2026-04-27 21:04 366K
20260427T18Z_MSC_RDPS_WindDir_IsbL-0010_RLatLon0.09_PT081H.grib2 2026-04-27 21:04 391K
20260427T18Z_MSC_RDPS_WindDir_IsbL-0020_RLatLon0.09_PT081H.grib2 2026-04-27 21:04 435K
20260427T18Z_MSC_RDPS_WindDir_IsbL-0030_RLatLon0.09_PT081H.grib2 2026-04-27 21:04 420K
20260427T18Z_MSC_RDPS_WindDir_IsbL-0050_RLatLon0.09_PT081H.grib2 2026-04-27 21:04 423K
20260427T18Z_MSC_RDPS_WindDir_IsbL-0100_RLatLon0.09_PT081H.grib2 2026-04-27 21:04 423K
20260427T18Z_MSC_RDPS_WindDir_IsbL-0150_RLatLon0.09_PT081H.grib2 2026-04-27 21:04 411K
20260427T18Z_MSC_RDPS_WindDir_IsbL-0175_RLatLon0.09_PT081H.grib2 2026-04-27 21:04 437K
20260427T18Z_MSC_RDPS_WindDir_IsbL-0200_RLatLon0.09_PT081H.grib2 2026-04-27 21:04 453K
20260427T18Z_MSC_RDPS_WindDir_IsbL-0225_RLatLon0.09_PT081H.grib2 2026-04-27 21:04 455K
20260427T18Z_MSC_RDPS_WindDir_IsbL-0250_RLatLon0.09_PT081H.grib2 2026-04-27 21:04 455K
20260427T18Z_MSC_RDPS_WindDir_IsbL-0275_RLatLon0.09_PT081H.grib2 2026-04-27 21:04 479K
20260427T18Z_MSC_RDPS_WindDir_IsbL-0300_RLatLon0.09_PT081H.grib2 2026-04-27 21:04 474K
20260427T18Z_MSC_RDPS_WindDir_IsbL-0350_RLatLon0.09_PT081H.grib2 2026-04-27 21:04 492K
20260427T18Z_MSC_RDPS_WindDir_IsbL-0400_RLatLon0.09_PT081H.grib2 2026-04-27 21:04 505K
20260427T18Z_MSC_RDPS_WindDir_IsbL-0450_RLatLon0.09_PT081H.grib2 2026-04-27 21:04 515K
20260427T18Z_MSC_RDPS_WindDir_IsbL-0500_RLatLon0.09_PT081H.grib2 2026-04-27 21:04 530K
20260427T18Z_MSC_RDPS_WindDir_IsbL-0550_RLatLon0.09_PT081H.grib2 2026-04-27 21:04 550K
20260427T18Z_MSC_RDPS_WindDir_IsbL-0600_RLatLon0.09_PT081H.grib2 2026-04-27 21:04 581K
20260427T18Z_MSC_RDPS_WindDir_IsbL-0650_RLatLon0.09_PT081H.grib2 2026-04-27 21:04 622K
20260427T18Z_MSC_RDPS_WindDir_IsbL-0700_RLatLon0.09_PT081H.grib2 2026-04-27 21:04 672K
20260427T18Z_MSC_RDPS_WindDir_IsbL-0750_RLatLon0.09_PT081H.grib2 2026-04-27 21:04 722K
20260427T18Z_MSC_RDPS_WindDir_IsbL-0800_RLatLon0.09_PT081H.grib2 2026-04-27 21:04 782K
20260427T18Z_MSC_RDPS_WindDir_IsbL-0850_RLatLon0.09_PT081H.grib2 2026-04-27 21:04 851K
20260427T18Z_MSC_RDPS_WindDir_IsbL-0875_RLatLon0.09_PT081H.grib2 2026-04-27 21:04 878K
20260427T18Z_MSC_RDPS_WindDir_IsbL-0900_RLatLon0.09_PT081H.grib2 2026-04-27 21:04 896K
20260427T18Z_MSC_RDPS_WindDir_IsbL-0925_RLatLon0.09_PT081H.grib2 2026-04-27 21:04 908K
20260427T18Z_MSC_RDPS_WindDir_IsbL-0950_RLatLon0.09_PT081H.grib2 2026-04-27 21:04 912K
20260427T18Z_MSC_RDPS_WindDir_IsbL-0970_RLatLon0.09_PT081H.grib2 2026-04-27 21:04 918K
20260427T18Z_MSC_RDPS_WindDir_IsbL-0985_RLatLon0.09_PT081H.grib2 2026-04-27 21:04 925K
20260427T18Z_MSC_RDPS_WindDir_IsbL-1000_RLatLon0.09_PT081H.grib2 2026-04-27 21:04 939K
20260427T18Z_MSC_RDPS_WindDir_IsbL-1015_RLatLon0.09_PT081H.grib2 2026-04-27 21:04 956K
20260427T18Z_MSC_RDPS_WindGust-Max_AGL-10m_RLatLon0.09_PT081H.grib2 2026-04-27 21:04 1.0M
20260427T18Z_MSC_RDPS_WindGust-Min_AGL-10m_RLatLon0.09_PT081H.grib2 2026-04-27 21:04 953K
20260427T18Z_MSC_RDPS_WindGust_AGL-10m_RLatLon0.09_PT081H.grib2 2026-04-27 21:04 1.0M
20260427T18Z_MSC_RDPS_WindSpeed_AGL-10m_RLatLon0.09_PT081H.grib2 2026-04-27 21:04 823K
20260427T18Z_MSC_RDPS_WindSpeed_AGL-120m_RLatLon0.09_PT081H.grib2 2026-04-27 21:04 530K
20260427T18Z_MSC_RDPS_WindSpeed_AGL-40m_RLatLon0.09_PT081H.grib2 2026-04-27 21:04 531K
20260427T18Z_MSC_RDPS_WindSpeed_AGL-80m_RLatLon0.09_PT081H.grib2 2026-04-27 21:04 530K
20260427T18Z_MSC_RDPS_WindSpeed_IsbL-0001_RLatLon0.09_PT081H.grib2 2026-04-27 21:04 253K
20260427T18Z_MSC_RDPS_WindSpeed_IsbL-0005_RLatLon0.09_PT081H.grib2 2026-04-27 21:04 382K
20260427T18Z_MSC_RDPS_WindSpeed_IsbL-0010_RLatLon0.09_PT081H.grib2 2026-04-27 21:04 400K
20260427T18Z_MSC_RDPS_WindSpeed_IsbL-0020_RLatLon0.09_PT081H.grib2 2026-04-27 21:04 327K
20260427T18Z_MSC_RDPS_WindSpeed_IsbL-0030_RLatLon0.09_PT081H.grib2 2026-04-27 21:04 324K
20260427T18Z_MSC_RDPS_WindSpeed_IsbL-0050_RLatLon0.09_PT081H.grib2 2026-04-27 21:04 452K
20260427T18Z_MSC_RDPS_WindSpeed_IsbL-0100_RLatLon0.09_PT081H.grib2 2026-04-27 21:04 470K
20260427T18Z_MSC_RDPS_WindSpeed_IsbL-0150_RLatLon0.09_PT081H.grib2 2026-04-27 21:04 375K
20260427T18Z_MSC_RDPS_WindSpeed_IsbL-0175_RLatLon0.09_PT081H.grib2 2026-04-27 21:04 422K
20260427T18Z_MSC_RDPS_WindSpeed_IsbL-0200_RLatLon0.09_PT081H.grib2 2026-04-27 21:04 438K
20260427T18Z_MSC_RDPS_WindSpeed_IsbL-0225_RLatLon0.09_PT081H.grib2 2026-04-27 21:04 445K
20260427T18Z_MSC_RDPS_WindSpeed_IsbL-0250_RLatLon0.09_PT081H.grib2 2026-04-27 21:04 451K
20260427T18Z_MSC_RDPS_WindSpeed_IsbL-0275_RLatLon0.09_PT081H.grib2 2026-04-27 21:04 471K
20260427T18Z_MSC_RDPS_WindSpeed_IsbL-0300_RLatLon0.09_PT081H.grib2 2026-04-27 21:04 468K
20260427T18Z_MSC_RDPS_WindSpeed_IsbL-0350_RLatLon0.09_PT081H.grib2 2026-04-27 21:04 478K
20260427T18Z_MSC_RDPS_WindSpeed_IsbL-0400_RLatLon0.09_PT081H.grib2 2026-04-27 21:04 479K
20260427T18Z_MSC_RDPS_WindSpeed_IsbL-0450_RLatLon0.09_PT081H.grib2 2026-04-27 21:04 463K
20260427T18Z_MSC_RDPS_WindSpeed_IsbL-0500_RLatLon0.09_PT081H.grib2 2026-04-27 21:04 463K
20260427T18Z_MSC_RDPS_WindSpeed_IsbL-0550_RLatLon0.09_PT081H.grib2 2026-04-27 21:04 461K
20260427T18Z_MSC_RDPS_WindSpeed_IsbL-0600_RLatLon0.09_PT081H.grib2 2026-04-27 21:04 587K
20260427T18Z_MSC_RDPS_WindSpeed_IsbL-0650_RLatLon0.09_PT081H.grib2 2026-04-27 21:04 608K
20260427T18Z_MSC_RDPS_WindSpeed_IsbL-0700_RLatLon0.09_PT081H.grib2 2026-04-27 21:04 634K
20260427T18Z_MSC_RDPS_WindSpeed_IsbL-0750_RLatLon0.09_PT081H.grib2 2026-04-27 21:04 662K
20260427T18Z_MSC_RDPS_WindSpeed_IsbL-0800_RLatLon0.09_PT081H.grib2 2026-04-27 21:04 747K
20260427T18Z_MSC_RDPS_WindSpeed_IsbL-0850_RLatLon0.09_PT081H.grib2 2026-04-27 21:04 801K
20260427T18Z_MSC_RDPS_WindSpeed_IsbL-0875_RLatLon0.09_PT081H.grib2 2026-04-27 21:04 822K
20260427T18Z_MSC_RDPS_WindSpeed_IsbL-0900_RLatLon0.09_PT081H.grib2 2026-04-27 21:04 839K
20260427T18Z_MSC_RDPS_WindSpeed_IsbL-0925_RLatLon0.09_PT081H.grib2 2026-04-27 21:04 852K
20260427T18Z_MSC_RDPS_WindSpeed_IsbL-0950_RLatLon0.09_PT081H.grib2 2026-04-27 21:04 854K
20260427T18Z_MSC_RDPS_WindSpeed_IsbL-0970_RLatLon0.09_PT081H.grib2 2026-04-27 21:04 851K
20260427T18Z_MSC_RDPS_WindSpeed_IsbL-0985_RLatLon0.09_PT081H.grib2 2026-04-27 21:04 844K
20260427T18Z_MSC_RDPS_WindSpeed_IsbL-1000_RLatLon0.09_PT081H.grib2 2026-04-27 21:04 836K
20260427T18Z_MSC_RDPS_WindSpeed_IsbL-1015_RLatLon0.09_PT081H.grib2 2026-04-27 21:04 826K
20260427T18Z_MSC_RDPS_WindU_AGL-10m_RLatLon0.09_PT081H.grib2 2026-04-27 21:04 425K
20260427T18Z_MSC_RDPS_WindU_AGL-120m_RLatLon0.09_PT081H.grib2 2026-04-27 21:04 414K
20260427T18Z_MSC_RDPS_WindU_AGL-40m_RLatLon0.09_PT081H.grib2 2026-04-27 21:04 532K
20260427T18Z_MSC_RDPS_WindU_AGL-80m_RLatLon0.09_PT081H.grib2 2026-04-27 21:04 531K
20260427T18Z_MSC_RDPS_WindU_IsbL-0001_RLatLon0.09_PT081H.grib2 2026-04-27 21:04 243K
20260427T18Z_MSC_RDPS_WindU_IsbL-0005_RLatLon0.09_PT081H.grib2 2026-04-27 21:04 286K
20260427T18Z_MSC_RDPS_WindU_IsbL-0010_RLatLon0.09_PT081H.grib2 2026-04-27 21:04 299K
20260427T18Z_MSC_RDPS_WindU_IsbL-0020_RLatLon0.09_PT081H.grib2 2026-04-27 21:04 316K
20260427T18Z_MSC_RDPS_WindU_IsbL-0030_RLatLon0.09_PT081H.grib2 2026-04-27 21:04 315K
20260427T18Z_MSC_RDPS_WindU_IsbL-0050_RLatLon0.09_PT081H.grib2 2026-04-27 21:04 343K
20260427T18Z_MSC_RDPS_WindU_IsbL-0100_RLatLon0.09_PT081H.grib2 2026-04-27 21:04 427K
20260427T18Z_MSC_RDPS_WindU_IsbL-0150_RLatLon0.09_PT081H.grib2 2026-04-27 21:04 393K
20260427T18Z_MSC_RDPS_WindU_IsbL-0175_RLatLon0.09_PT081H.grib2 2026-04-27 21:04 415K
20260427T18Z_MSC_RDPS_WindU_IsbL-0200_RLatLon0.09_PT081H.grib2 2026-04-27 21:04 335K
20260427T18Z_MSC_RDPS_WindU_IsbL-0225_RLatLon0.09_PT081H.grib2 2026-04-27 21:04 340K
20260427T18Z_MSC_RDPS_WindU_IsbL-0250_RLatLon0.09_PT081H.grib2 2026-04-27 21:04 343K
20260427T18Z_MSC_RDPS_WindU_IsbL-0275_RLatLon0.09_PT081H.grib2 2026-04-27 21:04 360K
20260427T18Z_MSC_RDPS_WindU_IsbL-0300_RLatLon0.09_PT081H.grib2 2026-04-27 21:04 355K
20260427T18Z_MSC_RDPS_WindU_IsbL-0350_RLatLon0.09_PT081H.grib2 2026-04-27 21:04 363K
20260427T18Z_MSC_RDPS_WindU_IsbL-0400_RLatLon0.09_PT081H.grib2 2026-04-27 21:04 364K
20260427T18Z_MSC_RDPS_WindU_IsbL-0450_RLatLon0.09_PT081H.grib2 2026-04-27 21:04 468K
20260427T18Z_MSC_RDPS_WindU_IsbL-0500_RLatLon0.09_PT081H.grib2 2026-04-27 21:04 470K
20260427T18Z_MSC_RDPS_WindU_IsbL-0550_RLatLon0.09_PT081H.grib2 2026-04-27 21:04 469K
20260427T18Z_MSC_RDPS_WindU_IsbL-0600_RLatLon0.09_PT081H.grib2 2026-04-27 21:04 477K
20260427T18Z_MSC_RDPS_WindU_IsbL-0650_RLatLon0.09_PT081H.grib2 2026-04-27 21:04 479K
20260427T18Z_MSC_RDPS_WindU_IsbL-0700_RLatLon0.09_PT081H.grib2 2026-04-27 21:04 502K
20260427T18Z_MSC_RDPS_WindU_IsbL-0750_RLatLon0.09_PT081H.grib2 2026-04-27 21:04 527K
20260427T18Z_MSC_RDPS_WindU_IsbL-0800_RLatLon0.09_PT081H.grib2 2026-04-27 21:04 563K
20260427T18Z_MSC_RDPS_WindU_IsbL-0850_RLatLon0.09_PT081H.grib2 2026-04-27 21:04 611K
20260427T18Z_MSC_RDPS_WindU_IsbL-0875_RLatLon0.09_PT081H.grib2 2026-04-27 21:04 629K
20260427T18Z_MSC_RDPS_WindU_IsbL-0900_RLatLon0.09_PT081H.grib2 2026-04-27 21:04 642K
20260427T18Z_MSC_RDPS_WindU_IsbL-0925_RLatLon0.09_PT081H.grib2 2026-04-27 21:04 650K
20260427T18Z_MSC_RDPS_WindU_IsbL-0950_RLatLon0.09_PT081H.grib2 2026-04-27 21:04 651K
20260427T18Z_MSC_RDPS_WindU_IsbL-0970_RLatLon0.09_PT081H.grib2 2026-04-27 21:04 650K
20260427T18Z_MSC_RDPS_WindU_IsbL-0985_RLatLon0.09_PT081H.grib2 2026-04-27 21:04 783K
20260427T18Z_MSC_RDPS_WindU_IsbL-1000_RLatLon0.09_PT081H.grib2 2026-04-27 21:04 777K
20260427T18Z_MSC_RDPS_WindU_IsbL-1015_RLatLon0.09_PT081H.grib2 2026-04-27 21:04 769K
20260427T18Z_MSC_RDPS_WindV_AGL-10m_RLatLon0.09_PT081H.grib2 2026-04-27 21:04 420K
20260427T18Z_MSC_RDPS_WindV_AGL-120m_RLatLon0.09_PT081H.grib2 2026-04-27 21:04 525K
20260427T18Z_MSC_RDPS_WindV_AGL-40m_RLatLon0.09_PT081H.grib2 2026-04-27 21:04 525K
20260427T18Z_MSC_RDPS_WindV_AGL-80m_RLatLon0.09_PT081H.grib2 2026-04-27 21:04 525K
20260427T18Z_MSC_RDPS_WindV_IsbL-0001_RLatLon0.09_PT081H.grib2 2026-04-27 21:04 245K
20260427T18Z_MSC_RDPS_WindV_IsbL-0005_RLatLon0.09_PT081H.grib2 2026-04-27 21:04 286K
20260427T18Z_MSC_RDPS_WindV_IsbL-0010_RLatLon0.09_PT081H.grib2 2026-04-27 21:04 302K
20260427T18Z_MSC_RDPS_WindV_IsbL-0020_RLatLon0.09_PT081H.grib2 2026-04-27 21:04 319K
20260427T18Z_MSC_RDPS_WindV_IsbL-0030_RLatLon0.09_PT081H.grib2 2026-04-27 21:04 318K
20260427T18Z_MSC_RDPS_WindV_IsbL-0050_RLatLon0.09_PT081H.grib2 2026-04-27 21:04 343K
20260427T18Z_MSC_RDPS_WindV_IsbL-0100_RLatLon0.09_PT081H.grib2 2026-04-27 21:04 423K
20260427T18Z_MSC_RDPS_WindV_IsbL-0150_RLatLon0.09_PT081H.grib2 2026-04-27 21:04 390K
20260427T18Z_MSC_RDPS_WindV_IsbL-0175_RLatLon0.09_PT081H.grib2 2026-04-27 21:04 414K
20260427T18Z_MSC_RDPS_WindV_IsbL-0200_RLatLon0.09_PT081H.grib2 2026-04-27 21:04 429K
20260427T18Z_MSC_RDPS_WindV_IsbL-0225_RLatLon0.09_PT081H.grib2 2026-04-27 21:04 434K
20260427T18Z_MSC_RDPS_WindV_IsbL-0250_RLatLon0.09_PT081H.grib2 2026-04-27 21:04 439K
20260427T18Z_MSC_RDPS_WindV_IsbL-0275_RLatLon0.09_PT081H.grib2 2026-04-27 21:04 357K
20260427T18Z_MSC_RDPS_WindV_IsbL-0300_RLatLon0.09_PT081H.grib2 2026-04-27 21:04 353K
20260427T18Z_MSC_RDPS_WindV_IsbL-0350_RLatLon0.09_PT081H.grib2 2026-04-27 21:04 361K
20260427T18Z_MSC_RDPS_WindV_IsbL-0400_RLatLon0.09_PT081H.grib2 2026-04-27 21:04 363K
20260427T18Z_MSC_RDPS_WindV_IsbL-0450_RLatLon0.09_PT081H.grib2 2026-04-27 21:04 467K
20260427T18Z_MSC_RDPS_WindV_IsbL-0500_RLatLon0.09_PT081H.grib2 2026-04-27 21:04 466K
20260427T18Z_MSC_RDPS_WindV_IsbL-0550_RLatLon0.09_PT081H.grib2 2026-04-27 21:04 465K
20260427T18Z_MSC_RDPS_WindV_IsbL-0600_RLatLon0.09_PT081H.grib2 2026-04-27 21:04 473K
20260427T18Z_MSC_RDPS_WindV_IsbL-0650_RLatLon0.09_PT081H.grib2 2026-04-27 21:04 474K
20260427T18Z_MSC_RDPS_WindV_IsbL-0700_RLatLon0.09_PT081H.grib2 2026-04-27 21:04 498K
20260427T18Z_MSC_RDPS_WindV_IsbL-0750_RLatLon0.09_PT081H.grib2 2026-04-27 21:04 522K
20260427T18Z_MSC_RDPS_WindV_IsbL-0800_RLatLon0.09_PT081H.grib2 2026-04-27 21:04 686K
20260427T18Z_MSC_RDPS_WindV_IsbL-0850_RLatLon0.09_PT081H.grib2 2026-04-27 21:04 607K
20260427T18Z_MSC_RDPS_WindV_IsbL-0875_RLatLon0.09_PT081H.grib2 2026-04-27 21:04 625K
20260427T18Z_MSC_RDPS_WindV_IsbL-0900_RLatLon0.09_PT081H.grib2 2026-04-27 21:04 638K
20260427T18Z_MSC_RDPS_WindV_IsbL-0925_RLatLon0.09_PT081H.grib2 2026-04-27 21:04 646K
20260427T18Z_MSC_RDPS_WindV_IsbL-0950_RLatLon0.09_PT081H.grib2 2026-04-27 21:04 785K
20260427T18Z_MSC_RDPS_WindV_IsbL-0970_RLatLon0.09_PT081H.grib2 2026-04-27 21:04 782K
20260427T18Z_MSC_RDPS_WindV_IsbL-0985_RLatLon0.09_PT081H.grib2 2026-04-27 21:04 776K
20260427T18Z_MSC_RDPS_WindV_IsbL-1000_RLatLon0.09_PT081H.grib2 2026-04-27 21:04 815K
20260427T18Z_MSC_RDPS_WindV_IsbL-1015_RLatLon0.09_PT081H.grib2 2026-04-27 21:04 806K